Location: Palomar Mountain Lodge
(33.3110°N, 116.8495°W)
Time: 08:36:41
(UTC-08:00)

COSMOS 2455 - Pass Details

Date: 13 December 2025
Orbit: 898 x 910 km, 67.1° (Epoch: 22 January)

Event Time Altitude Azimuth Distance (km) Brightness Sun altitude
Rises 18:01:21 0° 203° (SSW) 3,507 6.5 -16.3°
Reaches altitude 10° 18:03:50 10° 203° (SSW) 2,571 5.8 -16.8°
Maximum altitude 18:09:49 88° 115° (ESE) 909 2.8 -18.0°
Enters shadow 18:14:24 18° 26° (NNE) 2,062 4.3 -19.0°
